Погода в Подвязновском

Россия / Ивановская область     56°58′10″N   41°07′18″E
темп.,
°C
ветер,
м/с
пор.,
м/с
влажн.,
%
обл.,
%
осадки,
мм/ч
давл.,
гПа
погр.,
м
17 июня, чт
чт1700:00+12сз376566 0.0 1018117
03:00+11сз22652 0.0 101936
06:00+13зсз2668100 0.0 1020163
09:00+18ссз584753 0.0 1022930
12:00+20ссз58455 0.0 10231559
15:00+21сз57455 0.0 10231806
18:00+20сз385546 0.0 10241062
21:00+15з22720 0.0 102417
18 июня, пт
пт1800:00+13з11760 0.0 102611
03:00+11з11895 0.0 102710
06:00+14ю11805 0.0 102787
09:00+20юз225969 0.0 1027605
12:00+24зсз234377 0.0 10261731
15:00+25зсз344131 0.0 10251878
18:00+24з355617 0.0 1025690
21:00+18юз35795 0.0 102576
19 июня, сб
сб1900:00+16юз37855 0.0 1026115
03:00+15зюз311885 0.0 1026194
06:00+18зюз311783 0.0 1026294
09:00+23зюз57585 0.0 1025731
12:00+27з56485 0.0 10251538
15:00+27з56474 0.0 10241819
18:00+26зюз46570 0.0 1023899
21:00+20зюз37750 0.0 1023110
20 июня, вс
вс2000:00+17зюз38875 0.0 1024134
03:00+16зюз38915 0.0 1024127
06:00+19зюз35811 0.0 1025167
09:00+24зюз34572 0.0 1024644
12:00+27зюз34450 0.0 10231481
15:00+28зюз44435 0.0 10221666
18:00+26юз36553 0.0 1021558
21:00+20юз23750 0.0 102230
21 июня, пн
пн2100:00+17зюз358788 0.0 102270
03:00+16зюз3582100 0.0 102269
06:00+19зюз257718 0.0 1022151
09:00+25зюз225927 0.0 1022514
12:00+28з2246100 0.0 10211603
15:00+29сз2343100 0.0 10202062
18:00+29сз1258100 0.0 1020795
21:00+22з228099 0.0 102134